Weather History for Mankato, MN

Change the Weather History Date:

Thursday, April 12, 2012

  Actual Average Record
Temperature  
Mean Temperature 48 °F -  
Max Temperature 62 °F 52 °F 71 °F (2006)
Min Temperature 33 °F 34 °F 26 °F (2007)
Degree Days  
Heating Degree Days 18    
Moisture  
Dew Point 22 °F    
Average Humidity 38    
Maximum Humidity 81    
Minimum Humidity 19    
Precipitation  
Precipitation 0.00 in - - ()
Sea Level Pressure  
Sea Level Pressure 30.10 in    
Wind  
Wind Speed 9 mph (SSE)    
Max Wind Speed 16 mph    
Max Gust Speed 22 mph    
Visibility 10 miles    
Events      
Averages and records for this station are not official NWS values.
T = Trace of Precipitation, MM = Missing Value Source: NWS Daily Summary

Daily Weather History Graph

Daily Weather History Graph

Search for Another Location

Airport:

Trip Planner

Search our weather history database for the weather conditions in past years. The results will help you decide how hot, cold, wet, or windy it might be!

Date:

Astronomy

Apr. 12, 2012 Rise Set
Actual Time 6:36 AM CDT 7:56 PM CDT
Civil Twilight 6:06 AM CDT 8:27 PM CDT
Nautical Twilight 5:30 AM CDT 9:03 PM CDT
Astronomical Twilight 4:52 AM CDT 9:41 PM CDT
Moon 1:52 AM CDT (4/12) 11:24 AM CDT (4/12)
Length of Visible Light 14h 20m
Length of Day
13h 20m
Waning Gibbous, 58% of the Moon is Illuminated
Apr 12
Waning Gibbous
Apr 13
Last Quarter
Apr 21
New
Apr 29
First Quarter
May 5
Full

Hourly Weather History & Observations

Time (CDT) Temp. Windchill Dew Point Humidity Pressure Visibility Wind Dir Wind Speed Gust Speed Precip Events Conditions
12:15 AM 39.2 °F 37.0 °F 28.4 °F 65% 30.21 in 10.0 mi SE 3.5 mph - N/A   Clear
12:55 AM 39.2 °F 35.0 °F 30.2 °F 70% 30.20 in 10.0 mi SE 5.8 mph - N/A   Clear
1:15 AM 37.4 °F 32.8 °F 30.2 °F 75% 30.20 in 10.0 mi SE 5.8 mph - N/A   Clear
1:35 AM 39.2 °F 34.2 °F 33.8 °F 81% 30.20 in 10.0 mi SE 6.9 mph - N/A   Clear
1:55 AM 37.4 °F 32.1 °F 30.2 °F 75% 30.19 in 10.0 mi SE 6.9 mph - N/A   Clear
2:15 AM 35.6 °F 29.9 °F 26.6 °F 70% 30.19 in 10.0 mi SE 6.9 mph - N/A   Clear
2:35 AM 35.6 °F 29.2 °F 26.6 °F 70% 30.18 in 10.0 mi SE 8.1 mph - N/A   Clear
2:55 AM 35.6 °F 29.9 °F 24.8 °F 65% 30.18 in 10.0 mi SE 6.9 mph - N/A   Clear
3:15 AM 35.6 °F 29.2 °F 21.2 °F 56% 30.18 in 10.0 mi SE 8.1 mph - N/A   Clear
3:35 AM 33.8 °F 27.0 °F 21.2 °F 60% 30.18 in 10.0 mi SE 8.1 mph - N/A   Clear
3:55 AM 35.6 °F 29.2 °F 21.2 °F 56% 30.18 in 10.0 mi SE 8.1 mph - N/A   Clear
4:15 AM 35.6 °F 29.9 °F 21.2 °F 56% 30.17 in 10.0 mi SE 6.9 mph - N/A   Clear
4:35 AM 35.6 °F 29.2 °F 21.2 °F 56% 30.17 in 10.0 mi SSE 8.1 mph - N/A   Clear
4:55 AM 33.8 °F 27.0 °F 19.4 °F 56% 30.17 in 10.0 mi SE 8.1 mph - N/A   Clear
5:15 AM 33.8 °F 27.0 °F 19.4 °F 56% 30.17 in 10.0 mi SE 8.1 mph - N/A   Clear
5:35 AM 33.8 °F 26.4 °F 21.2 °F 60% 30.17 in 10.0 mi SSE 9.2 mph - N/A   Clear
5:55 AM 35.6 °F 29.2 °F 19.4 °F 52% 30.18 in 10.0 mi SSE 8.1 mph - N/A   Clear
6:15 AM 35.6 °F 29.9 °F 19.4 °F 52% 30.18 in 10.0 mi South 6.9 mph - N/A   Clear
6:35 AM 35.6 °F 29.9 °F 17.6 °F 48% 30.18 in 10.0 mi SSE 6.9 mph - N/A   Clear
6:55 AM 33.8 °F 27.0 °F 17.6 °F 52% 30.19 in 10.0 mi SSE 8.1 mph - N/A   Clear
7:15 AM 33.8 °F 26.4 °F 17.6 °F 52% 30.19 in 10.0 mi SSE 9.2 mph - N/A   Clear
7:35 AM 35.6 °F 29.2 °F 19.4 °F 52% 30.19 in 10.0 mi South 8.1 mph - N/A   Clear
7:55 AM 35.6 °F 29.2 °F 19.4 °F 52% 30.18 in 10.0 mi SSE 8.1 mph - N/A   Clear
8:15 AM 37.4 °F 32.8 °F 19.4 °F 48% 30.18 in 10.0 mi SSE 5.8 mph - N/A   Clear
8:35 AM 41.0 °F 35.8 °F 21.2 °F 45% 30.18 in 10.0 mi South 8.1 mph - N/A   Clear
8:55 AM 42.8 °F 39.3 °F 21.2 °F 42% 30.17 in 10.0 mi South 5.8 mph - N/A   Clear
9:15 AM 46.4 °F 41.5 °F 21.2 °F 37% 30.17 in 10.0 mi SSW 10.4 mph - N/A   Clear
9:35 AM 48.2 °F - 21.2 °F 34% 30.17 in 10.0 mi South 9.2 mph - N/A   Clear
9:55 AM 50.0 °F - 23.0 °F 35% 30.16 in 10.0 mi South 9.2 mph - N/A   Clear
10:15 AM 51.8 °F - 21.2 °F 30% 30.16 in 10.0 mi South 9.2 mph - N/A   Clear
10:35 AM 51.8 °F - 23.0 °F 33% 30.15 in 10.0 mi South 11.5 mph - N/A   Clear
10:55 AM 53.6 °F - 21.2 °F 28% 30.15 in 10.0 mi South 10.4 mph 17.3 mph N/A   Clear
11:15 AM 53.6 °F - 21.2 °F 28% 30.13 in 10.0 mi South 12.7 mph 16.1 mph N/A   Clear
11:35 AM 55.4 °F - 21.2 °F 26% 30.13 in 10.0 mi SSE 15.0 mph 18.4 mph N/A   Clear
11:55 AM 55.4 °F - 21.2 °F 26% 30.14 in 10.0 mi SE 10.4 mph 16.1 mph N/A   Clear
12:15 PM 55.4 °F - 21.2 °F 26% 30.13 in 10.0 mi SE 12.7 mph 16.1 mph N/A   Clear
12:35 PM 57.2 °F - 21.2 °F 25% 30.12 in 10.0 mi SSE 13.8 mph - N/A   Clear
12:55 PM 59.0 °F - 21.2 °F 23% 30.12 in 10.0 mi SSE 13.8 mph - N/A   Clear
1:15 PM 59.0 °F - 21.2 °F 23% 30.11 in 10.0 mi SSE 12.7 mph 19.6 mph N/A   Clear
1:35 PM 60.8 °F - 21.2 °F 22% 30.09 in 10.0 mi South 13.8 mph 19.6 mph N/A   Clear
1:55 PM 60.8 °F - 21.2 °F 22% 30.09 in 10.0 mi SSE 12.7 mph 16.1 mph N/A   Clear
2:15 PM 62.6 °F - 21.2 °F 20% 30.08 in 10.0 mi South 8.1 mph 20.7 mph N/A   Clear
2:35 PM 62.6 °F - 21.2 °F 20% 30.07 in 10.0 mi SSE 15.0 mph 20.7 mph N/A   Clear
2:55 PM 62.6 °F - 21.2 °F 20% 30.06 in 10.0 mi South 9.2 mph 18.4 mph N/A   Clear
3:15 PM 62.6 °F - 21.2 °F 20% 30.05 in 10.0 mi SE 9.2 mph 16.1 mph N/A   Clear
3:35 PM 62.6 °F - 19.4 °F 19% 30.04 in 10.0 mi South 9.2 mph 18.4 mph N/A   Clear
3:55 PM 62.6 °F - 21.2 °F 20% 30.02 in 10.0 mi SSE 12.7 mph 17.3 mph N/A   Clear
4:15 PM 62.6 °F - 23.0 °F 22% 30.02 in 10.0 mi SSE 11.5 mph 17.3 mph N/A   Clear
4:35 PM 62.6 °F - 23.0 °F 22% 30.01 in 10.0 mi South 11.5 mph 17.3 mph N/A   Clear
4:55 PM 62.6 °F - 23.0 °F 22% 30.01 in 10.0 mi SSE 12.7 mph 16.1 mph N/A   Clear
5:15 PM 62.6 °F - 21.2 °F 20% 30.00 in 10.0 mi SSE 15.0 mph - N/A   Clear
5:35 PM 62.6 °F - 23.0 °F 22% 30.00 in 10.0 mi SSE 11.5 mph - N/A   Clear
5:55 PM 62.6 °F - 21.2 °F 20% 30.00 in 10.0 mi South 10.4 mph - N/A   Partly Cloudy
6:15 PM 62.6 °F - 21.2 °F 20% 30.01 in 10.0 mi SSE 10.4 mph - N/A   Scattered Clouds
6:35 PM 62.6 °F - 21.2 °F 20% 30.00 in 10.0 mi South 8.1 mph - N/A   Mostly Cloudy
6:55 PM 60.8 °F - 21.2 °F 22% 30.00 in 10.0 mi SSE 11.5 mph - N/A   Overcast
7:15 PM 60.8 °F - 21.2 °F 22% 30.00 in 10.0 mi SSE 11.5 mph 18.4 mph N/A   Overcast
7:35 PM 60.8 °F - 23.0 °F 23% 30.00 in 10.0 mi SSE 12.7 mph - N/A   Overcast
7:55 PM 59.0 °F - 21.2 °F 23% 30.00 in 10.0 mi SSE 12.7 mph - N/A   Overcast
8:15 PM 59.0 °F - 23.0 °F 25% 30.00 in 10.0 mi SE 10.4 mph - N/A   Overcast
8:35 PM 57.2 °F - 23.0 °F 27% 30.01 in 10.0 mi SE 12.7 mph - N/A   Mostly Cloudy
8:55 PM 57.2 °F - 24.8 °F 29% 30.01 in 10.0 mi SE 12.7 mph - N/A   Mostly Cloudy
9:15 PM 57.2 °F - 24.8 °F 29% 30.00 in 10.0 mi SE 13.8 mph - N/A   Overcast
9:35 PM 57.2 °F - 24.8 °F 29% 30.00 in 10.0 mi SE 13.8 mph - N/A   Overcast
9:55 PM 57.2 °F - 24.8 °F 29% 30.00 in 10.0 mi SE 12.7 mph - N/A   Mostly Cloudy
10:15 PM 57.2 °F - 24.8 °F 29% 29.99 in 10.0 mi SE 13.8 mph - N/A   Mostly Cloudy
10:35 PM 57.2 °F - 24.8 °F 29% 29.99 in 10.0 mi SE 13.8 mph 18.4 mph N/A   Mostly Cloudy
10:55 PM 55.4 °F - 24.8 °F 31% 29.99 in 10.0 mi SE 16.1 mph - N/A   Overcast
11:15 PM 55.4 °F - 24.8 °F 31% 29.99 in 10.0 mi SE 16.1 mph - N/A   Overcast
11:35 PM 55.4 °F - 24.8 °F 31% 29.99 in 10.0 mi SE 13.8 mph - N/A   Overcast
11:55 PM 55.4 °F - 24.8 °F 31% 29.99 in 10.0 mi SE 15.0 mph 21.9 mph N/A   Overcast